Location: Arcones
(41.1182°N, 3.7238°W)
Time: 16:42:36
(UTC+00:00)

Cosmos 2058 Rocket - Pass Details

Date: 19 March 2026
Orbit: 604 x 632 km, 82.5° (Epoch: 18 April)

Event Time Altitude Azimuth Distance (km) Brightness Sun altitude
Rises 04:49:12 0° 142° (SE) 2,894 6.8 -17.8°
Reaches altitude 10° 04:52:18 10° 118° (ESE) 1,999 6.3 -17.2°
Maximum altitude 04:54:42 15° 85° (E) 1,723 6.5 -16.8°
Drops below altitude 10° 04:57:08 10° 52° (NE) 2,014 6.7 -16.3°
Sets 05:00:16 0° 28° (NNE) 2,931 7.2 -15.8°
